Regional Weather Roundup
Issued by NWS

Home | Current Version | Previous Version | Text Only | Print | Product List | Glossary On
Versions: 1 2 3 4 5 6 7 8 9 10 11 12 13 14 15 16 17 18 19 20 21 22 23 24 25 26 27 28 29 30 31 32 33 34 35 36 37 38 39 40 41 42 43 44 45 46 47 48 49 50
000
ASUS43 KLSX 260259
RWRMO

WEATHER SUMMARY FOR MISSOURI
NATIONAL WEATHER SERVICE SPRINGFIELD MO
900 PM CST THU DEC 25 2014

NOTE: "FAIR" INDICATES FEW OR NO CLOUDS BELOW 12,000 FEET WITH NO
       SIGNIFICANT WEATHER AND/OR OBSTRUCTIONS TO VISIBILITY.
       CURRENT SKY AND/OR WEATHER CONDITIONS ARE NOT AVAILABLE FOR
       CHILLICOTHE AND FARMINGTON.

MOZ001>031-035>038-043-044-053-054-260400-
...NORTHERN AND WESTERN MISSOURI...

CITY           SKY/WX    TMP DP  RH WIND       PRES   REMARKS
KANSAS CTY INT MOCLDY    49  30  48 S16       29.76R
KANSAS C DTWN  MOCLDY    51  29  42 S15       29.77S
LEE`S SUMMIT   MOCLDY    49  29  46 S14G25    29.80R
ST JOSEPH      MOCLDY    44  31  60 S10       29.75R
CHILLICOTHE      N/A     48  31  51 S9        29.81R
KIRKSVILLE     MOCLDY    37  31  78 S9        29.84R

$$
MOZ066>068-077>081-088>096-101>105-260400-
...SOUTHWEST MISSOURI...

CITY           SKY/WX    TMP DP  RH WIND       PRES   REMARKS
SPRINGFIELD    CLOUDY    46  29  51 S22G30    29.87R
JOPLIN         CLOUDY    50  28  42 S20G26    29.87R

$$
MOZ032>034-039>042-045>050-055>058-069>072-260400-
...CENTRAL MISSOURI...

CITY           SKY/WX    TMP DP  RH WIND       PRES   REMARKS
COLUMBIA       CLOUDY    45  31  58 S17       29.89R
JEFFERSON CITY CLOUDY    48  30  49 SE10      29.91R
ROLLA          CLOUDY    44  32  62 S16G24    29.91R
SEDALIA        PTCLDY    48  29  47 S15G24    29.85R
WARRENSBURG    PTCLDY    46  30  53 S12G21    29.82R
OSAGE BEACH    CLOUDY    48  28  46 S15G22    29.90R

$$
MOZ051-052-059>065-260400-
...EAST CENTRAL MISSOURI...

CITY           SKY/WX    TMP DP  RH WIND       PRES   REMARKS
ST LOUIS INTL  MOCLDY    45  35  68 S14       29.99S
SPIRIT OF STL  PTCLDY    45  34  65 S8        29.97S
ST CHARLES     CLEAR     42  35  76 SE14      29.98S

$$
MOZ072>076-082>087-097>100-106>115-260400-
...SOUTH CENTRAL AND SOUTHEAST MISSOURI...

CITY           SKY/WX    TMP DP  RH WIND       PRES   REMARKS
CAPE GIRARDEAU CLEAR     42  34  73 S10       30.09R
POPLAR BLUFF   PTCLDY    45  34  65 S12       30.07R
WEST PLAINS    PTCLDY    43  33  68 S13       30.00F

$$


USA.gov is the U.S. government's official web portal to all federal, state and local government web resources and services.